Temp
6 8 8 10 10 11 14 15 15 17 18 17 18 19 20 21 23 23 24 25 26 25 26 24 24 23 24 23 23 22 22 21 19 19 18 17 18 18 18 18 18 18 17 17
5 5 7 8 10 10 13 14 15 17 18 19 18 18 20 21 21 24 24 24 25 26 26 25 25 23 23 23 23 23 22 22 20 20 20 18 17 17 17 17 17 17 17 17
4 6 8 6 6 8 11 13 14 16 17 19 18 18 18 21 22 23 24 25 25 26 26 26 26 25 24 24 24 23 23 23 22 21 19 18 16 17 16 17 16 17 17 17
4 6 7 6 5 6 7 14 15 16 16 16 19 16 19 20 20 22 23 24 25 25 25 26 27 26 24 25 25 24 23 23 23 21 19 19 20 18 18 17 16 16 16 16
5 6 6 7 6 7 7 12 15 16 16 16 17 17 19 20 20 22 23 24 25 25 25 26 26 26 26 26 25 25 24 23 22 22 21 20 20 21 18 17 16 16 16 17
4 6 4 5 9 9 8 9 10 13 15 14 17 17 17 19 21 22 23 24 24 25 25 26 27 27 26 26 26 25 24 23 22 22 22 21 21 20 18 17 17 17 16 17
5 5 5 5 7 9 9 8 10 11 11 12 17 17 18 20 21 23 23 24 25 25 25 26 26 27 25 25 25 24 24 23 22 22 21 22 22 20 21 21 20 18 17 16
3 4 5 6 5 9 9 9 10 11 12 12 16 15 17 21 20 23 23 24 24 25 26 26 26 27 27 25 24 24 24 23 22 22 22 22 22 21 21 21 21 21 20 19
2 2 8 8 8 8 7 9 10 9 9 12 14 15 19 20 20 21 19 23 24 24 26 26 27 27 27 27 26 25 25 25 24 24 23 23 22 20 20 21 21 21 21 20
2 3 5 5 8 8 8 8 8 9 10 11 12 15 15 17 19 20 18 18 21 23 24 25 25 26 26 26 27 25 26 26 25 25 24 23 23 22 20 20 20 21 21 19
2 2 5 5 7 8 7 8 8 8 8 10 11 13 18 17 18 18 19 20 20 21 22 23 24 24 25 25 25 24 24 25 25 24 24 23 21 21 19 19 20 20 20 19
1 -3 3 6 4 3 8 7 8 8 8 9 12 11 16 16 17 17 17 19 21 23 23 22 23 23 24 24 24 24 24 24 24 24 22 23 23 19 19 19 19 19 19 19
4 -0 -2 5 4 3 3 3 4 4 6 10 10 11 14 13 12 12 11 12 15 17 20 23 23 23 24 24 25 24 24 24 22 20 19 20 21 19 19 19 18 19 19 18
4 1 -1 1 2 2 3 3 3 4 6 8 10 11 13 11 11 10 10 11 12 14 16 19 22 22 24 25 25 26 24 24 22 21 19 19 20 21 20 19 18 18 18 18
3 1 -0 2 3 3 3 3 4 4 4 5 9 8 10 9 10 10 10 10 10 9 11 13 16 18 20 22 23 24 24 24 23 21 19 18 20 20 19 18 18 19 18 18
1 2 2 3 5 5 4 5 5 5 4 5 6 7 9 10 10 10 8 8 8 8 9 11 12 16 17 18 20 21 22 23 22 20 18 18 19 19 18 18 18 19 18 18
1 0 1 1 4 4 2 5 5 6 6 7 6 8 7 8 8 8 8 8 7 6 9 8 10 14 14 17 17 17 17 18 18 18 18 18 18 18 18 19 18 18 18 17
1 -0 2 1 2 -1 6 8 8 7 6 8 8 6 6 8 8 9 7 8 8 6 8 9 9 11 13 14 16 16 16 16 17 17 17 17 17 17 18 17 17 16 17 17
3 1 -1 -1 0 3 6 8 9 8 8 9 8 8 8 9 9 9 8 8 7 7 8 7 9 11 13 14 16 16 16 16 17 17 17 17 16 16 16 14 15 15 14 13
3 2 2 -1 -1 -2 5 8 9 9 6 9 9 10 10 10 7 6 9 9 8 6 8 8 9 9 11 13 14 15 17 17 17 16 16 15 13 13 13 13 14 13 13 13
2 1 1 1 2 3 6 8 9 6 6 9 9 10 10 9 9 10 10 10 9 9 8 6 7 8 9 12 13 15 15 16 16 15 15 14 12 12 12 13 13 13 13 12
2 1 -2 -1 1 2 7 7 6 7 8 9 10 10 10 10 10 10 11 11 11 10 10 8 7 7 8 9 12 13 14 15 15 15 15 14 12 11 11 12 12 11 12 12
2 1 1 2 1 4 4 5 5 6 7 9 9 9 10 10 10 10 11 11 11 10 11 10 10 9 10 10 10 12 12 12 13 14 14 13 12 11 11 10 11 11 10 11
4 3 1 2 4 4 3 4 6 7 7 8 8 9 9 9 9 9 10 10 11 11 11 11 11 10 9 11 11 11 11 12 12 12 13 13 12 12 9 9 9 9 10 10
2 3 3 2 4 5 6 6 7 7 8 8 8 8 8 9 9 9 9 9 9 9 10 10 11 11 10 9 10 11 11 12 12 12 11 11 11 11 8 8 9 9 9 10
2 2 1 1 4 4 5 5 6 6 6 6 6 6 7 7 7 7 8 8 8 8 9 9 10 10 10 11 10 10 10 11 11 11 11 10 10 10 9 8 8 8 8 9
Height
1449 1443 1433 1432 1439 1441 1434 1427 1422 1405 1419 1424 1419 1425 1422 1419 1419 1418 1420 1422 1425 1429 1437 1440 1443 1447 1452 1454 1458 1462 1467 1471 1480 1483 1487 1493 1495 1501 1505 1508 1512 1518 1521 1525
1451 1443 1438 1435 1434 1436 1433 1428 1418 1409 1414 1416 1414 1414 1414 1414 1410 1410 1413 1415 1417 1422 1427 1432 1436 1439 1444 1446 1450 1456 1460 1464 1470 1475 1479 1486 1491 1495 1500 1504 1508 1513 1517 1521
1448 1426 1435 1440 1432 1433 1424 1420 1410 1408 1409 1405 1413 1416 1413 1403 1405 1406 1406 1406 1410 1412 1417 1422 1427 1431 1434 1440 1439 1446 1452 1457 1462 1468 1476 1482 1489 1493 1495 1496 1502 1505 1510 1515
1435 1425 1424 1425 1426 1429 1429 1408 1404 1410 1417 1415 1399 1415 1401 1401 1400 1399 1396 1398 1402 1405 1410 1414 1417 1420 1423 1428 1433 1435 1443 1448 1455 1461 1466 1471 1473 1477 1481 1488 1494 1499 1503 1507
1420 1417 1415 1410 1409 1417 1420 1411 1402 1404 1408 1407 1399 1405 1389 1388 1395 1384 1384 1387 1393 1397 1400 1405 1408 1410 1413 1419 1424 1427 1433 1439 1446 1450 1455 1460 1466 1470 1476 1484 1488 1493 1498 1502
1418 1417 1420 1406 1398 1401 1416 1415 1408 1402 1395 1398 1388 1396 1382 1378 1369 1371 1376 1379 1382 1388 1391 1395 1399 1402 1404 1410 1415 1419 1423 1429 1436 1441 1447 1451 1456 1462 1469 1473 1478 1483 1490 1496
1409 1401 1402 1403 1393 1390 1401 1407 1398 1397 1396 1389 1372 1385 1354 1354 1352 1359 1365 1369 1374 1378 1382 1385 1390 1393 1396 1398 1405 1409 1415 1420 1425 1430 1436 1442 1448 1453 1457 1462 1467 1473 1479 1485
1419 1405 1397 1394 1396 1378 1385 1386 1382 1377 1377 1380 1360 1374 1339 1343 1350 1353 1357 1361 1366 1368 1373 1376 1379 1383 1387 1390 1394 1398 1405 1410 1415 1420 1425 1433 1440 1444 1449 1455 1459 1463 1469 1474
1427 1412 1386 1384 1382 1384 1381 1374 1380 1388 1387 1375 1362 1362 1330 1348 1347 1348 1351 1356 1357 1359 1364 1367 1370 1374 1378 1382 1384 1389 1393 1399 1404 1410 1416 1424 1430 1436 1441 1446 1452 1455 1459 1466
1426 1412 1394 1384 1380 1378 1377 1381 1381 1379 1377 1375 1365 1354 1340 1336 1333 1341 1349 1351 1352 1354 1357 1359 1362 1366 1368 1370 1373 1377 1380 1387 1393 1399 1405 1412 1418 1424 1431 1438 1443 1447 1451 1456
1424 1420 1392 1392 1378 1374 1382 1376 1378 1377 1376 1370 1366 1356 1316 1336 1339 1342 1342 1345 1347 1349 1351 1352 1355 1359 1360 1362 1364 1367 1370 1376 1382 1386 1394 1402 1409 1416 1423 1429 1434 1440 1444 1448
1421 1429 1408 1384 1388 1387 1368 1370 1369 1367 1371 1365 1358 1357 1323 1326 1332 1333 1336 1337 1337 1341 1342 1344 1346 1350 1354 1356 1358 1359 1363 1368 1371 1375 1383 1392 1400 1405 1412 1419 1424 1433 1437 1440
1417 1422 1431 1385 1390 1391 1392 1393 1388 1380 1374 1356 1363 1356 1330 1336 1336 1340 1339 1338 1336 1335 1335 1332 1336 1339 1341 1345 1347 1349 1352 1355 1361 1367 1374 1384 1390 1396 1402 1409 1417 1423 1429 1434
1416 1417 1426 1422 1409 1405 1394 1391 1388 1384 1368 1361 1357 1348 1343 1343 1344 1346 1341 1338 1334 1336 1334 1329 1328 1329 1330 1333 1337 1338 1343 1348 1353 1360 1365 1374 1382 1389 1394 1401 1407 1415 1420 1424
1417 1417 1416 1409 1403 1401 1395 1391 1388 1386 1380 1374 1356 1358 1347 1349 1351 1352 1345 1341 1335 1342 1338 1334 1331 1325 1323 1325 1330 1331 1336 1342 1347 1353 1358 1365 1375 1383 1388 1394 1401 1409 1412 1418
1421 1409 1407 1400 1391 1386 1390 1383 1380 1378 1377 1376 1370 1362 1353 1351 1351 1347 1344 1348 1342 1345 1345 1339 1332 1336 1333 1328 1328 1330 1333 1337 1343 1349 1355 1363 1369 1376 1381 1388 1394 1400 1407 1411
1422 1419 1415 1410 1396 1396 1398 1375 1372 1371 1371 1365 1364 1359 1360 1356 1354 1351 1347 1344 1343 1348 1344 1340 1339 1341 1339 1335 1334 1334 1335 1339 1343 1349 1355 1360 1365 1371 1378 1384 1389 1393 1398 1403
1413 1417 1415 1410 1399 1415 1366 1359 1360 1362 1358 1357 1355 1360 1361 1358 1354 1351 1348 1349 1346 1345 1341 1342 1342 1341 1342 1340 1338 1338 1340 1341 1344 1349 1355 1358 1363 1369 1374 1379 1382 1387 1391 1396
1400 1411 1421 1422 1413 1383 1364 1353 1349 1353 1352 1349 1348 1351 1354 1355 1354 1349 1349 1351 1350 1346 1342 1346 1342 1344 1340 1342 1341 1340 1343 1344 1345 1349 1351 1355 1360 1364 1368 1373 1378 1383 1388 1392
1392 1400 1407 1419 1419 1422 1368 1360 1357 1358 1364 1350 1344 1347 1345 1348 1355 1351 1348 1348 1346 1351 1350 1341 1337 1344 1338 1342 1341 1344 1343 1344 1345 1348 1349 1351 1355 1358 1363 1368 1372 1378 1383 1387
1398 1400 1404 1403 1399 1386 1364 1354 1354 1364 1370 1355 1349 1347 1345 1347 1345 1342 1343 1343 1343 1345 1346 1344 1345 1341 1341 1348 1342 1342 1342 1344 1346 1347 1348 1350 1355 1359 1362 1365 1368 1373 1376 1382
1396 1401 1408 1403 1400 1389 1362 1358 1362 1364 1357 1352 1349 1347 1346 1345 1342 1339 1340 1341 1342 1342 1341 1344 1349 1346 1345 1347 1346 1344 1343 1342 1344 1347 1348 1350 1354 1358 1361 1364 1368 1370 1375 1379
1393 1394 1394 1388 1385 1373 1370 1369 1361 1359 1356 1350 1347 1347 1347 1346 1344 1343 1342 1340 1339 1339 1341 1343 1343 1347 1351 1348 1352 1347 1342 1340 1340 1344 1345 1347 1352 1354 1357 1361 1365 1367 1371 1375
1382 1384 1388 1386 1374 1374 1370 1361 1355 1354 1351 1348 1347 1346 1345 1345 1344 1342 1342 1339 1340 1338 1339 1343 1346 1344 1348 1345 1349 1350 1346 1340 1339 1340 1341 1344 1348 1350 1354 1359 1362 1364 1366 1369
1385 1383 1377 1376 1369 1365 1361 1360 1355 1351 1349 1348 1346 1345 1346 1344 1342 1343 1343 1341 1339 1336 1336 1337 1339 1342 1346 1349 1350 1348 1344 1340 1338 1340 1338 1341 1344 1347 1350 1353 1356 1359 1362 1365
1375 1371 1375 1371 1362 1364 1360 1354 1354 1352 1349 1348 1345 1343 1343 1342 1341 1341 1339 1338 1336 1334 1334 1334 1334 1336 1339 1340 1342 1342 1342 1336 1339 1337 1337 1338 1342 1343 1346 1350 1352 1355 1359 1361
Wind_Speed
11 8 15 27 20 25 24 22 31 24 10 9 21 17 17 17 23 21 23 29 35 33 35 49 50 51 47 46 46 47 44 40 39 40 41 44 45 42 40 38 39 35 33 32
6 17 18 17 16 22 29 26 26 20 15 18 13 18 18 19 13 28 25 29 34 39 41 37 51 53 55 54 52 53 50 44 44 41 41 43 43 43 40 39 38 36 34 33
14 21 15 24 20 18 25 31 30 26 13 18 16 20 12 18 25 24 34 37 39 41 41 42 42 54 56 59 58 56 56 50 45 44 44 43 42 41 42 43 41 40 38 35
14 20 23 23 13 12 13 30 31 26 14 18 18 13 25 18 17 23 28 34 39 37 41 47 46 47 53 55 59 58 57 55 50 47 48 48 47 51 51 48 44 43 42 39
8 10 17 25 30 24 9 17 25 22 20 21 15 13 14 22 20 25 24 38 37 41 45 47 48 50 53 53 58 62 58 58 56 53 51 50 50 47 48 50 51 49 47 45
24 22 8 5 20 24 18 22 19 13 17 21 27 17 15 17 32 28 23 32 34 40 46 46 47 45 52 56 56 64 63 62 60 59 56 53 50 50 51 49 51 51 52 49
10 19 13 13 9 12 19 13 5 10 8 11 23 22 27 25 22 24 23 30 37 41 46 54 50 47 48 55 60 65 67 65 65 63 61 58 53 51 48 49 49 50 51 51
5 8 11 13 11 8 17 20 4 6 9 8 19 21 29 32 8 33 25 26 35 41 48 48 44 38 38 51 57 64 66 69 68 67 65 60 56 55 51 49 48 49 48 48
4 6 4 10 11 9 2 14 14 4 4 5 6 5 34 24 22 25 12 28 30 33 45 47 46 46 46 44 53 61 65 67 70 68 67 62 60 59 55 49 47 46 46 45
4 9 4 13 14 13 3 7 6 9 6 5 4 18 20 20 29 16 8 8 17 25 33 40 37 44 49 52 51 61 65 62 67 70 68 66 64 62 58 53 49 47 45 45
4 4 9 6 7 7 5 5 5 1 5 5 2 7 23 9 6 14 18 22 25 32 35 34 37 32 28 47 50 59 62 63 67 70 70 68 66 63 60 57 52 49 47 45
5 4 5 7 2 14 4 3 9 3 6 4 6 7 6 2 2 5 5 20 33 41 48 44 44 40 36 33 44 53 57 62 67 69 69 70 66 62 60 58 54 48 47 45
2 4 4 4 3 7 4 5 6 3 2 4 8 6 4 10 12 11 8 19 14 16 32 48 44 48 51 43 42 44 55 64 65 64 64 66 67 62 59 56 53 50 49 47
8 3 5 3 4 4 8 11 9 4 3 5 6 12 3 11 11 11 15 21 27 30 23 27 38 34 41 43 47 44 49 54 58 60 59 59 62 65 60 56 53 50 49 49
2 4 2 5 9 11 15 14 11 9 5 4 4 6 9 13 5 5 16 21 28 32 34 30 4 12 19 30 35 35 35 38 45 53 53 53 52 58 60 57 52 48 51 50
4 3 3 4 6 9 15 19 14 13 15 13 12 9 6 9 12 13 16 19 19 24 29 33 34 6 5 11 20 25 30 32 34 37 40 44 49 52 55 51 49 48 49 50
5 2 4 4 4 8 7 13 16 12 14 11 7 5 10 13 12 11 10 14 18 20 28 33 33 26 4 2 6 13 18 21 24 26 29 36 41 44 46 44 45 46 48 47
10 3 2 6 6 3 5 10 11 10 14 9 8 4 9 11 11 10 5 2 17 21 26 30 33 31 26 2 5 8 10 11 13 17 19 23 28 34 39 40 42 42 43 45
14 5 2 2 3 10 12 9 5 3 6 9 14 11 10 13 8 4 4 7 4 12 19 26 27 30 29 14 2 3 5 7 7 10 16 24 26 28 30 31 34 37 40 44
7 9 5 1 2 5 5 7 15 5 3 13 3 5 8 14 5 4 11 14 7 1 12 25 28 29 30 28 15 10 6 3 3 4 5 11 21 28 29 29 32 36 39 42
1 3 9 8 7 7 9 13 8 3 4 4 10 7 1 3 8 9 6 7 12 6 7 10 17 28 24 31 21 15 14 12 9 8 6 8 15 23 26 30 37 39 43 46
3 1 3 3 6 7 4 16 6 4 13 4 6 10 9 10 6 9 7 4 1 5 5 4 9 13 18 21 22 16 19 14 16 16 12 11 15 22 25 29 31 36 40 41
2 1 4 5 4 11 23 20 30 22 15 14 10 11 13 14 12 11 10 12 9 4 6 9 6 11 11 10 11 14 16 15 21 21 19 17 17 19 24 29 35 37 38 39
4 5 3 5 4 3 15 31 21 22 19 16 16 14 8 8 11 13 14 15 16 16 16 12 11 13 10 14 16 14 15 16 12 21 25 23 22 21 23 28 33 38 42 44
4 6 7 6 9 14 19 18 23 22 20 15 13 10 14 14 14 16 16 17 17 16 18 21 20 16 17 18 23 19 21 15 13 16 20 26 26 24 25 28 33 36 39 42
5 6 4 5 9 6 17 23 20 15 8 12 15 16 14 14 15 17 19 19 20 22 24 23 20 21 24 19 20 23 25 17 12 13 17 23 28 28 28 29 34 37 40 39
Wind_Direction
326 257 220 216 211 241 233 230 228 242 204 211 236 238 236 254 232 233 226 233 241 236 224 217 211 208 212 219 217 219 218 216 203 211 210 215 218 218 222 224 223 215 214 213
306 254 244 271 223 242 237 235 237 250 226 212 223 228 224 239 238 228 222 229 232 239 241 226 219 211 210 218 220 219 219 221 212 209 218 215 216 220 222 225 222 220 215 215
247 254 256 240 267 245 245 228 233 228 211 230 226 248 238 233 236 242 234 228 235 234 236 239 229 214 214 214 220 219 219 219 220 216 211 214 213 220 222 224 224 223 222 222
252 268 240 235 234 221 276 227 239 240 228 229 199 237 227 229 230 227 235 229 230 234 235 240 240 223 211 214 217 220 220 220 219 217 212 212 217 218 222 224 223 227 227 226
230 281 250 219 226 237 249 281 233 240 223 244 228 230 226 215 225 226 224 233 232 234 237 238 238 236 221 217 214 219 219 220 218 218 219 216 217 225 225 221 225 225 228 230
257 266 264 315 244 227 232 265 281 271 229 224 222 228 230 208 217 224 225 225 228 229 235 233 234 234 229 218 216 218 217 220 219 218 220 221 221 220 220 224 227 228 229 228
273 244 228 219 264 203 213 208 213 209 206 221 215 215 238 211 223 217 216 225 227 226 230 234 226 226 226 222 216 217 217 218 218 219 219 223 224 221 224 227 229 231 230 229
335 319 174 195 227 207 217 209 204 212 195 191 218 210 240 227 206 228 231 222 224 226 228 225 221 222 231 229 221 217 218 219 220 220 221 223 226 224 225 228 231 233 235 237
320 273 327 255 194 198 214 219 200 337 332 257 184 222 249 241 234 240 230 225 229 225 226 227 232 237 237 236 232 224 221 221 223 224 223 223 226 224 225 229 232 237 239 236
287 291 30 316 185 210 200 144 177 211 203 228 253 205 232 194 223 226 234 249 249 247 241 239 241 242 245 243 240 229 224 225 225 225 224 225 225 227 227 227 230 234 238 235
269 251 289 354 204 232 199 221 190 221 211 225 210 240 236 231 193 224 247 250 258 266 258 248 244 252 248 241 237 226 220 221 222 224 223 223 225 225 225 226 229 232 234 234
221 215 277 278 215 340 192 228 205 165 187 221 229 266 306 157 225 208 244 252 245 247 254 255 254 255 251 241 237 229 224 221 222 224 222 220 226 224 224 226 227 228 232 235
310 283 324 343 13 32 1 350 314 291 309 187 193 249 143 52 45 26 47 18 357 300 269 260 254 251 254 259 249 236 230 226 223 220 220 219 220 223 225 226 227 228 229 233
276 268 176 242 234 290 308 317 313 304 237 212 218 268 24 32 15 3 5 24 24 10 345 264 254 255 252 249 237 224 224 227 223 222 220 217 219 224 228 229 227 227 228 231
271 265 275 255 255 258 264 272 286 297 288 259 44 286 300 340 325 343 17 11 28 7 360 10 125 180 201 208 206 205 211 217 220 220 214 211 219 222 225 225 226 224 227 230
303 310 295 276 267 272 265 265 262 262 272 265 271 282 292 353 3 3 20 349 18 4 351 355 22 28 89 151 180 191 200 205 212 215 214 215 216 220 224 225 226 226 230 229
259 261 342 266 293 310 263 248 235 246 238 217 233 272 23 325 323 331 355 349 346 338 338 349 354 15 341 115 154 175 177 188 197 206 209 211 213 217 223 224 226 228 227 227
238 207 231 289 332 327 245 316 283 247 254 250 268 252 285 261 269 321 253 313 308 324 328 342 347 353 8 230 146 180 180 180 188 199 212 214 213 215 219 223 222 223 228 232
214 196 243 234 236 284 300 298 11 213 292 254 235 217 210 266 202 287 236 265 349 338 312 324 335 345 360 358 263 150 169 179 195 212 224 225 228 227 226 228 229 228 230 228
172 198 191 120 211 253 245 328 322 306 339 342 212 195 227 187 224 232 208 248 201 330 308 301 320 327 356 349 327 237 180 165 217 243 240 215 223 222 221 228 230 230 226 225
202 170 201 216 245 278 282 289 315 125 213 304 5 355 181 181 227 174 201 235 226 226 329 353 322 321 334 346 327 259 252 258 267 258 260 230 217 217 221 224 224 223 219 216
220 254 197 174 217 256 312 317 15 325 317 307 24 4 1 350 282 256 247 231 166 294 307 244 321 294 329 327 358 328 262 269 278 259 258 247 225 217 220 219 228 222 221 228
301 135 302 196 220 327 312 319 310 313 311 326 327 350 337 320 329 327 310 311 307 309 297 294 292 212 289 316 281 331 352 324 270 265 253 244 237 227 222 224 223 218 219 216
256 160 218 311 231 269 292 308 308 306 298 313 320 328 331 358 344 349 338 322 299 293 295 281 264 268 299 283 320 310 322 338 312 270 258 247 241 234 224 226 229 227 223 221
233 305 252 261 270 254 264 254 287 296 316 326 343 342 333 331 326 323 316 318 325 330 308 294 287 273 261 274 291 309 303 317 328 301 270 248 242 237 231 230 230 234 237 238
217 223 197 221 247 247 277 287 300 308 7 5 359 350 343 344 335 328 319 315 311 312 305 305 303 307 287 277 281 287 294 304 291 288 285 260 248 241 236 233 230 234 237 242